Location: Newark
(29.9790°N, 31.1340°E)
Time: 01:07:01
(UTC+00:00)

A-11 Canister half - Pass Details

Date: 01 February 2020
Orbit: 1524 x 1684 km, 47.3° (Epoch: 26 February)

Event Time Altitude Azimuth Distance (km) Brightness Sun altitude
Rises 15:51:30 0° 286° (WNW) 4,673 12.6 -4.8°
Reaches altitude 10° 15:55:12 10° 298° (WNW) 3,699 11.7 -5.6°
Maximum altitude 16:02:51 27° 354° (N) 2,619 10.2 -7.2°
Drops below altitude 10° 16:10:39 10° 50° (NE) 3,776 10.5 -8.8°
Enters shadow 16:11:42 - 54° (NE) 4,039 10.6 -9.0°
